User: anonymous   Login
Location: Eckley
(40.9930°N, 75.8630°W)
Time: 23:35:25
(UTC-04:00)
Language:

Cosmos 2221 Rocket - Orbit

View from above orbital plane
View from above orbital plane
View from above satellite
View from above satellite

Ground track
Ground track

The orbit data is extracted from the following two-line orbital elements,

1 22237U 92080B   16179.26852838  .00000083  00000-0  83414-5 0  9997
2 22237  82.5131  87.8743 0018263 287.6434 188.1142 14.78267778271001
Epoch (UTC): 27 June 2016 06:26:40
Eccentricity: 0.0018263
inclination: 82.5131°
perigee height: 622 km
apogee height: 647 km
right ascension of ascending node: 87.8743°
argument of perigee: 287.6434°
revolutions per day: 14.78267778
mean anomaly at epoch: 188.1142°
orbit number at epoch: 27100

The dashed part of the orbit path shows where the satellite is in the earth's shadow,  

DLR